Weather Roundup
Issued by NWS

Home | Current Version | Previous Version | Graphics & Text | Print | Product List | Glossary Off
Versions: 1 2 3 4 5 6 7 8 9 10 11 12 13 14 15 16 17 18 19 20 21 22 23 24 25 26 27 28 29 30 31 32 33 34 35 36 37 38 39 40 41 42 43 44 45 46 47 48 49 50

000
NZUS93 KARX 272359
HRRWXR

CURRENT HOURLY OBSERVATIONS ACROSS
MUCH OF THE UPPER MISSISSIPPI VALLEY
NATIONAL WEATHER SERVICE LA CROSSE WI
600 PM CST FRI FEB 27 2015


...SOUTHEAST MINNESOTA...


CITY           SKY/WX    TMP DP  RH WIND       PRES   REMARKS
ROCHESTER      CLEAR      0  -6  76 S8        30.50S WCI -14
ROCHESTER/MAYO FAIR       9  -1  63 SW5       30.51S WCI   1
WINONA         CLEAR     12   0  57 SW6       30.57R WCI   3
AUSTIN         CLEAR      3  -4  72 SW5       30.51S WCI  -6
ALBERT LEA     CLEAR      7   0  72 S5        30.50S WCI  -2
DODGE CENTER   PTCLDY     3  -2  78 SW6       30.49S WCI  -8
PRESTON        CLEAR      2  -5  70 SW5       30.51F WCI  -7
OWATONNA       CLEAR      5  -2  72 S6        30.50S WCI  -6
FARIBAULT      CLEAR      9  -2  61 S6        30.51S WCI  -1
$$

...ELSEWHERE IN MINNESOTA...


CITY           SKY/WX    TMP DP  RH WIND       PRES   REMARKS
MINNEAPOLIS    CLEAR     12  -2  53 SW7       30.50S WCI   1
INTNL FALLS    CLEAR     14  -8  37 SW9       30.30S WCI   2
DULUTH         CLEAR     16  -6  37 SW10      30.34S WCI   4
RED WING       CLEAR     10  -2  56 SW8       30.53R WCI  -1
REDWOOD FALLS  CLEAR     12   2  64 S7        30.47F WCI   1
MANKATO        CLEAR      9  -6  52 S6        30.50S WCI  -1
FAIRMONT       CLEAR     10   0  61 S6        30.48F WCI   1
$$

...SOUTHWEST WISCONSIN...


CITY           SKY/WX    TMP DP  RH WIND       PRES   REMARKS
LA CROSSE      CLEAR     11  -3  53 SW12      30.55S WCI  -3
PRAIRIE DU CHI CLEAR      8  -7  50 W6        30.59S WCI  -2
BOSCOBEL       CLEAR     11  -6  46 SW7       30.58S WCI   0
LONE ROCK      NOT AVBL
PLATTEVILLE    CLEAR      5  -6  61 SW8       30.55S WCI  -9
FORT MC COY    CLEAR     13  -5  44 W5        30.54R WCI   5
VIROQUA        FAIR       9  -4  54 SW7       30.50R WCI  -2
WIS DELLS      NOT AVBL
$$

...ELSEWHERE IN WISCONSIN...


CITY           SKY/WX    TMP DP  RH WIND       PRES   REMARKS
MILWAUKEE      CLEAR     13  -5  44 SW9       30.56R WCI   1
MADISON        CLEAR     11  -4  51 SW5       30.54R WCI   3
GREEN BAY      CLEAR     15  -1  49 SW6       30.49S WCI   6
EAU CLAIRE     NOT AVBL
BLACK RVR FLS  FAIR      12  -8  41 SW5       30.52S WCI   4
MEDFORD        CLEAR      8  -4  58 SW7       30.42S WCI  -3
WAUSAU         CLEAR     10  -4  53 W9        30.44R WCI  -3
WIS RAPIDS     CLEAR     13  -8  39 W5        30.49S WCI   5
MARSHFIELD     CLEAR     10  -5  50 W7        30.45F WCI  -1
RICE LAKE      CLEAR     13  -3  48 SW5       30.47S WCI   6
$$

...NORTHEAST IOWA...


CITY           SKY/WX    TMP DP  RH WIND       PRES   REMARKS
DECORAH        CLEAR      5  -6  61 SW5       30.53S WCI  -4
MASON CITY     CLEAR      2  -4  76 S7        30.53S WCI -11
CHARLES CITY   CLEAR      3  -6  66 SW6       30.55S WCI  -8
OELWEIN        CLEAR      1  -8  66 W5        30.56F WCI  -8
$$

...ELSEWHERE IN IOWA...


CITY           SKY/WX    TMP DP  RH WIND       PRES   REMARKS
DES MOINES     PTCLDY    13  -3  49 S5        30.56S WCI   5
IOWA CITY      CLEAR      6  -4  63 CALM      30.63F
FORT DODGE     CLEAR      7  -2  66 S5        30.53F WCI  -2
$$

...NORTHERN ILLINOIS...


CITY           SKY/WX    TMP DP  RH WIND       PRES   REMARKS
CHICAGO-OHARE  PTCLDY    11  -5  48 SW8       30.60R WCI  -1
CHICAGO-MIDWAY PTCLDY    12  -3  51 SW12      30.62R WCI  -2
MOLINE         CLEAR      7  -7  52 SW5       30.63S WCI  -2
ROCKFORD       CLEAR      9  -6  50 SW6       30.61R WCI  -1
PEORIA         CLEAR     12  -4  48 NW3       30.64S
$$

NOTE: "FAIR" INDICATES FEW OR NO CLOUDS BELOW 12,000 FEET WITH NO
SIGNIFICANT WEATHER AND/OR OBSTRUCTIONS TO VISIBILITY. WIND
SPEEDS ARE IN MILES-PER-HOUR.



USA.gov is the U.S. government's official web portal to all federal, state and local government web resources and services.